Flag for Switzerland Weather past 2 weeks in Delémont, Jura, Switzerland

Now
70 °F

Mild.


Feels Like: 77 °F
Forecast: 48 / 66 °F
Wind: 5 mph from Southwest

Location: Grenchen

Current Time: Aug 22, 2014 at 2:56:10 PM

Latest Report: Aug 22, 2014 at 2:00 PM


Visibility: N/A

Pressure: 29.97 "Hg

Humidity: 47%

Dew point: 49 °F

Location of DelémontLocation

Historic Weather in Delémont — Graph

°F

Delémont temperature yesterday

Maximum temperature yesterday: 69 °F (at 5:00 PM)
Minimum temperature yesterday: 49 °F (at 7:00 AM)
Average temperature yesterday: 59 °F

Past Weeks' High & Low Weather Summary

 TemperatureHumidityPressure
High80 °F (Aug 8, 5:00 PM)100% (Aug 17, 6:00 AM)30.24 "Hg (Aug 17, 6:00 AM)
Low47 °F (Aug 17, 7:00 AM)41% (Aug 21, 3:00 PM)29.69 "Hg (Aug 13, 9:00 AM)
Average62 °F77%29.98 "Hg
* Reported Aug 7 1:00 PM — Aug 22 1:00 PM, Delémont, Weather by CustomWeather, © 2014

Note: Actual official high and low records may vary slightly from our data, if they occured in-between our weather recording intervals... More about our weather records

Advertising

Delémont weather history for previous 24 hours

 ConditionsComfort  
Time TempWeatherWind HumidityBarometerVisibility
1:00 PM
Aug 22
67 °FMild.6 mph48%29.99 "HgN/A
12:00 PM65 °FMild.3 mph47%30.01 "HgN/A
11:00 AM62 °FMild.2 mph64%30.03 "HgN/A
10:00 AM58 °FCool.1 mph74%30.04 "HgN/A
9:00 AM55 °FCool.2 mph86%30.06 "HgN/A
8:00 AM53 °FCool.1 mph93%30.06 "HgN/A
7:00 AM51 °FCool.1 mph94%30.06 "HgN/A
6:00 AM49 °FCool.No wind95%30.06 "HgN/A
5:00 AM49 °FCool.2 mph95%30.07 "HgN/A
4:00 AM52 °FCool.No wind94%30.06 "HgN/A
3:00 AM54 °FCool.1 mph93%30.06 "HgN/A
2:00 AM54 °FCool.1 mph88%30.06 "HgN/A
1:00 AM54 °FCool.1 mph89%30.06 "HgN/A
12:00 AM55 °FCool.2 mph83%30.06 "HgN/A
11:00 PM
Aug 21
57 °FCool.2 mph81%30.05 "HgN/A
10:00 PM59 °FCool.2 mph76%30.04 "HgN/A
9:00 PM62 °FCool.1 mph67%30.02 "HgN/A
8:00 PM63 °FMild.3 mph57%30.00 "HgN/A
7:00 PM67 °FMild.6 mph50%29.98 "HgN/A
6:00 PM68 °FMild.6 mph45%29.98 "HgN/A
5:00 PM69 °FMild.3 mph41%29.98 "HgN/A
4:00 PM69 °FMild.3 mph41%29.99 "HgN/A
3:00 PM68 °FMild.5 mph41%30.01 "HgN/A
2:00 PM67 °FMild.5 mph47%30.03 "HgN/A
Weather by CustomWeather, © 2014

See weather overviewHow to use our weather pages